Location: Fredericksburg
(30.2750°N, 98.8720°W)
Time: 00:38:37
(UTC-06:00)

Amateur Radio Satellites - All Passes

Search period start: 27 November 2014 00:08
Search period end: 28 November 2014 00:08
Location: Fredericksburg, 30.2750°N, 98.8720°W

Satellite Date Start Highest point End Downlink Frequencies (MHz)
Time Altitude Azimuth
BUGSAT 1 27 Nov 00:10:31 00:14:08 32° 287° (WNW) 00:17:44 437.445
TIGRISAT 27 Nov 00:15:18 00:18:24 19° 290° (WNW) 00:21:33 435.000
RS-15 27 Nov 00:17:17 00:26:39 29° 48° (NE) 00:36:15 29.354- 29.394
UNISAT 6 27 Nov 00:30:33 00:32:31 13° 292° (WNW) 00:34:30 437.425
POPSAT HIP 1 27 Nov 00:30:47 00:33:25 16° 290° (WNW) 00:36:04 437.405
MaSat-1 27 Nov 00:43:42 00:45:26 18° 66° (ENE) 00:47:13 437.345
ITUPSAT 1 27 Nov 00:48:36 00:52:51 33° 72° (ENE) 00:57:08 437.325
SWISSCUBE 27 Nov 00:58:45 01:03:21 48° 74° (ENE) 01:07:58 437.505
CUSAT 1 27 Nov 01:01:51 01:06:53 43° 264° (W) 01:13:24 437.405
AUBIESAT-1 27 Nov 01:03:49 01:07:44 87° 73° (ENE) 01:12:04 437.475
M-CUBED/EXP-1 PRIME 27 Nov 01:09:51 01:13:44 70° 255° (WSW) 01:18:01 437.505
TISAT 1 27 Nov 01:12:33 01:14:46 14° 265° (W) 01:17:00 437.305
YUBILEINY 27 Nov 01:12:35 01:16:49 15° 80° (E) 01:21:01 435.215
JUGNU 27 Nov 01:25:29 01:30:34 30° 181° (S) 01:35:41 437.505
SPROUT 27 Nov 01:26:30 01:27:54 11° 266° (W) 01:29:18 437.525
BEESAT 27 Nov 01:29:23 01:34:10 83° 257° (WSW) 01:38:59 436.000
DANDE 27 Nov 01:32:51 01:37:11 26° 265° (W) 01:42:32 436.750
SRMSAT 27 Nov 01:37:58 01:43:00 28° 174° (S) 01:48:03 437.500
KKS-1 27 Nov 01:40:32 01:43:56 22° 71° (ENE) 01:47:21 437.445
Oscar 19 27 Nov 01:49:06 01:54:11 55° 101° (E) 01:59:14 437.125/150
ITUPSAT 1 27 Nov 02:27:20 02:30:44 19° 264° (W) 02:34:09 437.325
RS-15 27 Nov 02:28:36 02:39:54 74° 247° (WSW) 02:51:44 29.354- 29.394
STARS 27 Nov 02:32:59 02:37:20 62° 76° (ENE) 02:41:40 437.465
SWISSCUBE 27 Nov 02:39:14 02:41:22 13° 266° (W) 02:43:31 437.505
ITAMSAT 1 27 Nov 02:44:31 02:49:41 73° 102° (ESE) 02:54:49 435.822/435.867
HORYU 2 27 Nov 02:55:16 02:58:20 18° 96° (E) 03:01:23 437.375
YUBILEINY 27 Nov 03:03:35 03:12:25 84° 275° (W) 03:21:14 435.215
JUGNU 27 Nov 03:14:32 03:19:07 23° 191° (S) 03:23:43 437.505
KKS-1 27 Nov 03:16:47 03:20:25 25° 263° (W) 03:24:03 437.445
Gurwin Techsat 1B 27 Nov 03:23:02 03:28:21 83° 284° (WNW) 03:33:38 435.225
SRMSAT 27 Nov 03:26:38 03:31:45 29° 184° (S) 03:36:51 437.500
Oscar 19 27 Nov 03:30:28 03:32:59 14° 294° (WNW) 03:35:30 437.125/150
SO-50 27 Nov 03:39:11 03:43:36 70° 298° (WNW) 03:48:11 436.795
AO-7 27 Nov 04:18:28 04:26:27 47° 102° (ESE) 04:34:22 29.400- 29.500
PCSat 27 Nov 04:25:03 04:28:53 19° 56° (NE) 04:32:42 145.827
ITAMSAT 1 27 Nov 04:27:52 04:28:29 10° 296° (WNW) 04:29:05 435.822/435.867
MOZHAYETS 4 27 Nov 04:28:43 04:32:59 39° 74° (ENE) 04:37:16
HORYU 2 27 Nov 04:31:03 04:34:58 30° 288° (WNW) 04:38:54 437.375
JAS-2 27 Nov 04:35:36 04:39:37 17° 90° (E) 04:43:21 435.910
RS-15 27 Nov 04:47:30 04:50:32 11° 261° (W) 04:53:37 29.354- 29.394
O/OREOS (USA 219) 27 Nov 04:50:06 04:52:30 14° 100° (E) 04:54:53 437.305
JUGNU 27 Nov 05:05:35 05:07:35 12° 199° (SSW) 05:09:35 437.505
YUBILEINY 27 Nov 05:07:08 05:10:20 12° 292° (WNW) 05:13:33 435.215
PRISM 27 Nov 05:15:58 05:19:09 21° 71° (ENE) 05:22:22 437.425
SRMSAT 27 Nov 05:16:12 05:20:26 20° 194° (SSW) 05:24:39 437.500
BEESAT 3 27 Nov 05:21:44 05:25:44 44° 60° (ENE) 05:29:40 437.485
Cubesat XI-IV 27 Nov 05:35:43 05:37:32 12° 93° (E) 05:39:20 437.490
STRAND 1 27 Nov 05:37:25 05:40:22 16° 67° (ENE) 05:43:19 437.568
BEESAT 2 27 Nov 05:38:04 05:42:14 63° 62° (ENE) 05:46:19 435.950
ISS 27 Nov 05:47:27 05:49:30 15° 36° (NE) 05:51:32 145.825
PCSat 27 Nov 06:07:19 06:12:28 46° 250° (WSW) 06:17:35 145.827
MOZHAYETS 4 27 Nov 06:07:52 06:10:18 14° 266° (W) 06:12:44
AO-7 27 Nov 06:11:45 06:18:50 32° 296° (WNW) 06:25:56 29.400- 29.500
CUBESAT XI-V 27 Nov 06:13:33 06:17:51 37° 73° (ENE) 06:22:10 437.345
CUTE-I 27 Nov 06:14:12 06:18:54 32° 98° (E) 06:23:34 437.470
AIST 2 27 Nov 06:18:00 06:22:17 85° 63° (ENE) 06:26:30 435.215
JAS-2 27 Nov 06:18:33 06:25:11 57° 287° (WNW) 06:31:01 435.910
O/OREOS (USA 219) 27 Nov 06:27:22 06:31:31 36° 292° (WNW) 06:35:39 437.305
PRISM 27 Nov 06:51:15 06:54:32 22° 263° (W) 06:57:52 437.425
GONETS M04 27 Nov 07:01:56 07:07:02 17° 81° (E) 07:12:08
BEESAT 3 27 Nov 07:02:17 07:03:29 11° 253° (WSW) 07:04:41 437.485
Cubesat XI-IV 27 Nov 07:12:40 07:17:55 61° 286° (WNW) 07:23:07 437.490
STRAND 1 27 Nov 07:14:09 07:19:06 48° 260° (W) 07:24:04 437.568
AIST 1 27 Nov 07:19:54 07:24:17 90° 269° (W) 07:28:35
ISS 27 Nov 07:23:09 07:26:14 38° 230° (SW) 07:29:19 145.825
CUBESAT XI-V 27 Nov 07:52:24 07:55:20 16° 266° (W) 07:58:16 437.345
CUTE-I 27 Nov 07:54:34 07:58:44 24° 291° (WNW) 08:02:54 437.470
SEEDS 27 Nov 08:36:15 08:38:28 14° 94° (E) 08:40:40 437.485
AAUSAT CUBESAT 2 27 Nov 08:50:06 08:52:31 15° 95° (E) 08:54:55 437.432
GONETS M04 27 Nov 08:54:00 09:02:46 76° 276° (W) 09:11:38
HO-68 27 Nov 09:02:31 09:09:21 47° 101° (E) 09:16:08 435.675
CANX-2 27 Nov 09:04:37 09:08:42 42° 99° (E) 09:12:47 2200.000
COMPASS 1 27 Nov 09:05:19 09:08:56 27° 97° (E) 09:12:32 437.405
BRITE-PL 27 Nov 09:07:44 09:11:37 38° 99° (E) 09:15:39 437.365/2234.400
DX 1 27 Nov 09:14:08 09:15:27 11° 94° (E) 09:16:45 434.975-435.025
DOVE 4 27 Nov 09:21:43 09:25:25 29° 98° (E) 09:29:14 437.250
TIGRISAT 27 Nov 09:33:34 09:35:29 13° 69° (ENE) 09:37:25 435.000
CUTE 1.7 + AOD 2 27 Nov 09:38:55 09:43:12 76° 283° (WNW) 09:47:30 437.475
ZACube-1 27 Nov 09:43:15 09:45:02 12° 94° (E) 09:46:50 437.345
POPSAT HIP 1 27 Nov 09:44:04 09:45:31 12° 68° (ENE) 09:46:59 437.405
UNISAT 6 27 Nov 09:46:47 09:49:51 20° 71° (ENE) 09:52:54 437.425
CINEMA 3 27 Nov 09:47:04 09:50:59 34° 99° (E) 09:55:01 145.822/145.860
GOMX 1 27 Nov 10:10:00 10:14:01 47° 285° (WNW) 10:18:12 467.674
SEEDS 27 Nov 10:10:27 10:14:21 35° 286° (WNW) 10:18:14 437.485
UKube-1 27 Nov 10:10:31 10:14:48 60° 101° (E) 10:19:03 .
ANTELSAT 27 Nov 10:14:36 10:18:39 43° 74° (ENE) 10:22:41 437.575/2403.000
AISAT 27 Nov 10:15:40 10:18:48 19° 96° (E) 10:21:55 437.250
FUNcube-1 27 Nov 10:16:01 10:19:52 32° 98° (E) 10:23:47 145.935
POLYITAN 1 27 Nov 10:16:02 10:19:45 30° 73° (ENE) 10:23:28 437.675
QB50P2 27 Nov 10:17:24 10:21:10 31° 73° (ENE) 10:24:55 145.880/145.840
Oscar 11 27 Nov 10:20:40 10:25:01 82° 283° (WNW) 10:29:22 145.826/435.025
DELFI C3 27 Nov 10:21:58 10:26:07 88° 105° (ESE) 10:30:15 145.870
DUCHIFAT 1 27 Nov 10:22:21 10:26:13 35° 74° (ENE) 10:30:05 145.980
AAUSAT CUBESAT 2 27 Nov 10:24:26 10:28:13 32° 287° (WNW) 10:31:59 437.432
50 SAT 27 Nov 10:29:18 10:32:24 21° 96° (E) 10:35:30 437.505
COMPASS 1 27 Nov 10:41:31 10:44:26 18° 289° (WNW) 10:47:21 437.405
NANOSAT C BR1 27 Nov 10:41:38 10:45:50 64° 76° (ENE) 10:50:03 145.865
CANX-2 27 Nov 10:42:30 10:44:13 12° 292° (WNW) 10:45:57 2200.000
UWE-3 27 Nov 10:45:27 10:49:45 85° 282° (WNW) 10:54:09 435.000/436.395/437.385
DX 1 27 Nov 10:47:43 10:51:50 44° 286° (WNW) 10:55:56 434.975-435.025
BRITE-PL 27 Nov 10:48:17 10:49:49 12° 291° (WNW) 10:51:22 437.365/2234.400
CUBEBUG 2 27 Nov 10:48:20 10:52:35 66° 283° (WNW) 10:56:58 437.445
HUMSAT D 27 Nov 10:49:33 10:53:37 49° 100° (E) 10:57:43 437.325/437.525
HO-68 27 Nov 10:50:54 10:56:39 27° 295° (WNW) 11:02:23 435.675
QB50P1 27 Nov 10:51:41 10:55:57 87° 77° (ENE) 11:00:12 145.935-145.965
BUGSAT 1 27 Nov 10:54:30 10:58:45 77° 77° (ENE) 11:02:59 437.445
GONETS M04 27 Nov 10:59:53 11:00:57 10° 294° (WNW) 11:02:00
DOVE 4 27 Nov 11:00:15 11:02:58 17° 289° (WNW) 11:05:46 437.250
TIGRISAT 27 Nov 11:07:54 11:11:53 38° 261° (W) 11:15:50 435.000
POPSAT HIP 1 27 Nov 11:16:56 11:21:00 43° 260° (W) 11:25:04 437.405
ZACube-1 27 Nov 11:17:30 11:21:29 39° 285° (WNW) 11:25:33 437.345
UNISAT 6 27 Nov 11:22:57 11:26:27 25° 263° (W) 11:29:58 437.425
VELOX 1 27 Nov 11:23:54 11:28:15 60° 285° (WNW) 11:32:35 145.980
CINEMA 3 27 Nov 11:25:29 11:27:54 15° 290° (WNW) 11:30:23 145.822/145.860
ESTCUBE 1 27 Nov 11:27:51 11:32:14 49° 100° (E) 11:36:35 437.505/2401.250
SPROUT 27 Nov 11:42:26 11:44:02 12° 94° (E) 11:45:37 437.525
AISAT 27 Nov 11:51:38 11:55:22 27° 288° (WNW) 11:59:06 437.250
POLYITAN 1 27 Nov 11:53:03 11:55:42 16° 265° (W) 11:58:20 437.675
FUNcube-1 27 Nov 11:53:22 11:55:57 16° 290° (WNW) 11:58:32 145.935
QB50P2 27 Nov 11:54:33 11:57:05 15° 265° (W) 11:59:38 145.880/145.840
ANTELSAT 27 Nov 11:54:40 11:55:36 11° 266° (W) 11:56:33 437.575/2403.000
CUBEBUG 1 27 Nov 11:58:19 12:02:38 72° 284° (WNW) 12:06:56 437.445
DUCHIFAT 1 27 Nov 12:00:00 12:02:08 14° 265° (W) 12:04:17 145.980
50 SAT 27 Nov 12:04:28 12:07:34 21° 288° (WNW) 12:10:41 437.505
SO-50 27 Nov 12:16:40 12:20:37 24° 55° (NE) 12:24:34 436.795
PHONESAT 2.4 27 Nov 12:26:57 12:29:11 15° 139° (SE) 12:31:25 2401.200-2431.200
CUSAT 1 27 Nov 12:29:14 12:31:02 16° 95° (E) 12:32:43 437.405
VERMONT LUNAR 27 Nov 12:30:52 12:33:52 25° 142° (SE) 12:36:53 437.305
AUBIESAT-1 27 Nov 12:53:44 12:56:26 15° 97° (E) 12:59:04 437.475
ITUPSAT 1 27 Nov 12:56:45 12:59:06 14° 94° (E) 13:01:26 437.325
M-CUBED/EXP-1 PRIME 27 Nov 12:59:25 13:02:55 20° 99° (E) 13:06:18 437.505
Oscar 19 27 Nov 13:00:25 13:05:14 44° 73° (ENE) 13:10:03 437.125/150
DANDE 27 Nov 13:01:01 13:03:55 45° 97° (E) 13:06:28 436.750
TISAT 1 27 Nov 13:01:21 13:05:27 53° 285° (WNW) 13:09:31 437.305
SWISSCUBE 27 Nov 13:06:03 13:09:32 20° 96° (E) 13:13:00 437.505
ESTCUBE 1 27 Nov 13:06:59 13:08:38 12° 293° (WNW) 13:10:16 437.505/2401.250
SPROUT 27 Nov 13:16:14 13:20:14 40° 286° (WNW) 13:24:13 437.525
YUBILEINY 27 Nov 13:21:38 13:29:30 37° 77° (ENE) 13:37:18 435.215
BEESAT 27 Nov 13:35:54 13:40:24 40° 99° (E) 13:44:53 436.000
ITAMSAT 1 27 Nov 13:56:42 14:01:49 61° 75° (ENE) 14:06:58 435.822/435.867
SO-50 27 Nov 13:56:50 14:01:08 31° 249° (WSW) 14:05:26 436.795
PHONESAT 2.4 27 Nov 14:03:58 14:07:39 75° 331° (NNW) 14:11:21 2401.200-2431.200
MaSat-1 27 Nov 14:06:25 14:08:31 17° 108° (ESE) 14:10:30 437.345
VERMONT LUNAR 27 Nov 14:08:43 14:12:12 46° 335° (NNW) 14:15:42 437.305
AUBIESAT-1 27 Nov 14:26:55 14:31:34 45° 291° (WNW) 14:36:02 437.475
STARS 27 Nov 14:29:58 14:33:02 18° 96° (E) 14:36:05 437.465
ITUPSAT 1 27 Nov 14:32:34 14:37:08 45° 286° (WNW) 14:41:40 437.325
M-CUBED/EXP-1 PRIME 27 Nov 14:33:30 14:37:57 35° 292° (WNW) 14:42:15 437.505
RS-15 27 Nov 14:35:09 14:43:55 28° 104° (ESE) 14:52:32 29.354- 29.394
Gurwin Techsat 1B 27 Nov 14:38:14 14:43:33 88° 77° (ENE) 14:48:53 435.225
Oscar 19 27 Nov 14:41:40 14:44:41 16° 265° (W) 14:47:43 437.125/150
SWISSCUBE 27 Nov 14:43:10 14:47:21 31° 288° (WNW) 14:51:31 437.505
O/OREOS (USA 219) 27 Nov 15:05:54 15:07:27 12° 61° (ENE) 15:08:59 437.305
AO-7 27 Nov 15:11:23 15:18:50 39° 65° (ENE) 15:26:19 29.400- 29.500
KKS-1 27 Nov 15:12:56 15:17:22 80° 284° (WNW) 15:21:48 437.445
BEESAT 27 Nov 15:15:01 15:17:52 16° 292° (WNW) 15:20:42 436.000
YUBILEINY 27 Nov 15:18:23 15:26:06 38° 273° (W) 15:33:50 435.215
HORYU 2 27 Nov 15:23:25 15:27:48 67° 258° (WSW) 15:32:13 437.375
ITAMSAT 1 27 Nov 15:39:56 15:41:35 11° 267° (W) 15:43:15 435.822/435.867
MaSat-1 27 Nov 15:41:37 15:42:52 12° 296° (WNW) 15:44:05 437.345
PHONESAT 2.4 27 Nov 15:43:55 15:46:50 21° 347° (NNW) 15:49:45 2401.200-2431.200
VERMONT LUNAR 27 Nov 15:48:41 15:51:13 18° 351° (N) 15:53:46 437.305
STARS 27 Nov 16:05:43 16:09:28 28° 288° (WNW) 16:13:12 437.465
JAS-2 27 Nov 16:22:00 16:28:50 38° 69° (ENE) 16:35:54 435.910
MOZHAYETS 4 27 Nov 16:31:06 16:33:50 15° 94° (E) 16:36:33
O/OREOS (USA 219) 27 Nov 16:42:46 16:47:05 49° 255° (WSW) 16:51:24 437.305
RS-15 27 Nov 16:44:32 16:55:23 63° 300° (WNW) 17:06:12 29.354- 29.394
Cubesat XI-IV 27 Nov 16:52:39 16:54:42 12° 65° (ENE) 16:56:46 437.490
AO-7 27 Nov 17:03:57 17:11:27 38° 260° (W) 17:19:01 29.400- 29.500
PHONESAT 2.4 27 Nov 17:23:58 17:26:28 17° 4° (N) 17:28:58 2401.200-2431.200
VERMONT LUNAR 27 Nov 17:28:01 17:30:34 18° 9° (N) 17:33:07 437.305
CUTE-I 27 Nov 17:30:36 17:35:14 31° 71° (ENE) 17:39:52 437.470
JAS-2 27 Nov 18:06:49 18:13:37 38° 263° (W) 18:20:47 435.910
MOZHAYETS 4 27 Nov 18:06:50 18:11:07 37° 287° (WNW) 18:15:23
CUBESAT XI-V 27 Nov 18:17:45 18:20:16 14° 94° (E) 18:22:46 437.345
Cubesat XI-IV 27 Nov 18:28:50 18:34:10 66° 258° (WSW) 18:39:30 437.490
PRISM 27 Nov 18:39:17 18:43:31 82° 102° (ESE) 18:47:42 437.425
PCSat 27 Nov 18:59:47 19:05:00 53° 111° (ESE) 19:10:16 145.827
PHONESAT 2.4 27 Nov 19:02:32 19:05:57 34° 21° (NNE) 19:09:21 2401.200-2431.200
RS-15 27 Nov 19:04:55 19:10:26 15° 326° (NW) 19:16:00 29.354- 29.394
VERMONT LUNAR 27 Nov 19:06:04 19:09:35 47° 25° (NNE) 19:13:05 437.305
CUTE-I 27 Nov 19:10:51 19:15:12 25° 263° (W) 19:19:34 437.470
BEESAT 3 27 Nov 19:11:30 19:15:11 34° 112° (ESE) 19:18:56 437.485
GONETS M04 27 Nov 19:11:56 19:20:10 42° 78° (ENE) 19:28:17
HO-68 27 Nov 19:26:45 19:31:33 20° 62° (ENE) 19:36:21 435.675
BEESAT 2 27 Nov 19:28:13 19:32:09 50° 114° (ESE) 19:36:10 435.950
STRAND 1 27 Nov 19:30:25 19:35:32 87° 284° (WNW) 19:40:37 437.568
AIST 1 27 Nov 19:43:18 19:47:39 71° 94° (E) 19:52:03
CUBESAT XI-V 27 Nov 19:53:29 19:57:48 39° 286° (WNW) 20:02:05 437.345
CANX-2 27 Nov 19:53:50 19:56:16 15° 70° (ENE) 19:58:42 2200.000
AIST 2 27 Nov 20:10:54 20:15:04 76° 116° (ESE) 20:19:19 435.215
BRITE-PL 27 Nov 20:13:09 20:17:24 28° 73° (ENE) 20:21:24 437.365/2234.400
DOVE 4 27 Nov 20:23:13 20:26:10 17° 71° (ENE) 20:29:01 437.250
CUTE 1.7 + AOD 2 27 Nov 20:26:39 20:30:29 35° 74° (ENE) 20:34:19 437.475
PHONESAT 2.4 27 Nov 20:41:16 20:44:47 42° 215° (SW) 20:48:17 2401.200-2431.200
VERMONT LUNAR 27 Nov 20:44:54 20:47:55 25° 218° (SW) 20:50:55 437.305
CINEMA 3 27 Nov 20:44:57 20:47:44 17° 71° (ENE) 20:50:27 145.822/145.860
PCSat 27 Nov 20:45:15 20:48:42 17° 306° (NW) 20:52:09 145.827
BEESAT 3 27 Nov 20:50:58 20:53:29 16° 306° (NW) 20:56:02 437.485
SEEDS 27 Nov 20:56:48 21:00:57 76° 77° (ENE) 21:05:09 437.485
UKube-1 27 Nov 21:00:44 21:04:16 25° 71° (ENE) 21:07:49 .
DELFI C3 27 Nov 21:05:50 21:09:09 25° 72° (ENE) 21:12:30 145.870
FUNcube-1 27 Nov 21:08:46 21:10:38 13° 69° (ENE) 21:12:30 145.935
GONETS M04 27 Nov 21:09:06 21:16:38 33° 274° (W) 21:24:09
BEESAT 2 27 Nov 21:09:13 21:10:42 12° 309° (NW) 21:12:12 435.950
AAUSAT CUBESAT 2 27 Nov 21:09:39 21:13:47 80° 77° (ENE) 21:17:58 437.432
Oscar 11 27 Nov 21:10:06 21:14:01 36° 74° (ENE) 21:17:57 145.826/435.025
HO-68 27 Nov 21:11:28 21:18:34 65° 257° (WSW) 21:25:43 435.675
GOMX 1 27 Nov 21:12:07 21:17:01 88° 258° (WSW) 21:21:34 467.674
COMPASS 1 27 Nov 21:26:28 21:30:31 52° 260° (W) 21:34:36 437.405
CANX-2 27 Nov 21:28:09 21:31:54 32° 262° (W) 21:35:41 2200.000
JUGNU 27 Nov 21:35:16 21:38:38 16° 163° (SSE) 21:42:01 437.505
DX 1 27 Nov 21:37:22 21:41:44 75° 76° (ENE) 21:46:06 434.975-435.025
UWE-3 27 Nov 21:37:42 21:41:36 36° 74° (ENE) 21:45:26 435.000/436.395/437.385
HUMSAT D 27 Nov 21:37:48 21:40:28 17° 70° (ENE) 21:43:08 437.325/437.525
CUBEBUG 2 27 Nov 21:41:25 21:45:33 49° 75° (ENE) 21:49:35 437.445
BRITE-PL 27 Nov 21:51:47 21:55:48 23° 263° (W) 21:59:35 437.365/2234.400
DOVE 4 27 Nov 21:59:30 22:03:41 33° 261° (W) 22:07:42 437.250
CUTE 1.7 + AOD 2 27 Nov 22:04:29 22:06:28 13° 266° (W) 22:08:29 437.475
ZACube-1 27 Nov 22:07:54 22:12:07 77° 77° (ENE) 22:16:17 437.345
ANTELSAT 27 Nov 22:13:35 22:16:19 16° 95° (E) 22:19:03 437.575/2403.000
VELOX 1 27 Nov 22:16:00 22:20:23 58° 75° (ENE) 22:24:46 145.980
CINEMA 3 27 Nov 22:20:48 22:24:42 30° 262° (W) 22:28:29 145.822/145.860
ESTCUBE 1 27 Nov 22:22:44 22:26:18 23° 71° (ENE) 22:29:54 437.505/2401.250
ISS 27 Nov 22:23:48 22:27:05 79° 314° (NW) 22:30:21 145.825
NANOSAT C BR1 27 Nov 22:34:10 22:36:51 16° 95° (E) 22:39:30 145.865
UKube-1 27 Nov 22:37:04 22:40:20 21° 263° (W) 22:43:36 .
DELFI C3 27 Nov 22:41:40 22:44:23 17° 265° (W) 22:47:08 145.870
FUNcube-1 27 Nov 22:42:44 22:46:39 37° 261° (W) 22:50:31 145.935
AISAT 27 Nov 22:43:30 22:47:56 63° 259° (W) 22:52:22 437.250
QB50P1 27 Nov 22:43:49 22:47:06 22° 97° (E) 22:50:23 145.935-145.965
BUGSAT 1 27 Nov 22:44:20 22:46:57 17° 96° (E) 22:49:33 437.445
50 SAT 27 Nov 22:46:50 22:50:51 72° 259° (W) 22:54:52 437.505
Oscar 11 27 Nov 22:48:06 22:50:15 14° 266° (W) 22:52:24 145.826/435.025
CUBEBUG 1 27 Nov 22:48:56 22:53:10 45° 74° (ENE) 22:57:24 437.445
TIGRISAT 27 Nov 23:04:51 23:09:19 65° 101° (E) 23:13:52 435.000
POPSAT HIP 1 27 Nov 23:08:15 23:12:18 45° 100° (E) 23:16:20 437.405
CUSAT 1 27 Nov 23:10:43 23:14:50 21° 80° (E) 23:19:44 437.405
HUMSAT D 27 Nov 23:12:31 23:16:02 27° 262° (W) 23:19:33 437.325/437.525
UWE-3 27 Nov 23:16:22 23:18:12 13° 265° (W) 23:20:03 435.000/436.395/437.385
UNISAT 6 27 Nov 23:19:40 23:24:10 81° 283° (WNW) 23:28:46 437.425
JUGNU 27 Nov 23:22:16 23:27:06 27° 172° (S) 23:31:57 437.505
SRMSAT 27 Nov 23:37:21 23:41:32 20° 166° (SSE) 23:45:45 437.500
RS-15 27 Nov 23:41:48 23:49:57 22° 43° (NE) 23:58:16 29.354- 29.394
POLYITAN 1 27 Nov 23:43:01 23:47:11 60° 284° (WNW) 23:51:21 437.675
QB50P2 27 Nov 23:44:12 23:48:21 58° 284° (WNW) 23:52:30 145.880/145.840
DANDE 27 Nov 23:44:49 23:49:39 36° 82° (E) 23:55:54 436.750
TISAT 1 27 Nov 23:48:13 23:52:21 51° 75° (ENE) 23:56:29 437.305
DUCHIFAT 1 27 Nov 23:48:54 23:52:59 51° 285° (WNW) 23:57:04 145.980
ANTELSAT 27 Nov 23:49:01 23:53:08 36° 286° (WNW) 23:57:19 437.575/2403.000
ESTCUBE 1 27 Nov 23:59:21 00:03:01 24° 263° (W) 00:06:43 437.505/2401.250
